Regional Weather Roundup
Issued by NWS

Home | Current Version | Previous Version | Graphics & Text | Print | Product List | Glossary On
Versions: 1 2 3 4 5 6 7 8 9 10 11 12 13 14 15 16 17 18 19 20 21 22 23 24 25 26 27 28 29 30 31 32 33 34 35 36 37 38 39 40 41 42 43 44 45 46 47 48 49 50
210
ASUS45 KTFX 111010
RWRMT
MONTANA REGIONAL WEATHER ROUNDUP
NATIONAL WEATHER SERVICE GREAT FALLS MT
300 AM MST MON DEC 11 2017

NOTE: "FAIR" INDICATES FEW OR NO CLOUDS BELOW 12000 FEET WITH NO
SIGNIFICANT WEATHER AND/OR OBSTRUCTIONS TO VISIBILITY.

MTZ001>007-043-111100-
WEST OF THE DIVIDE

CITY           SKY/WX    TMP DP  RH WIND       PRES   REMARKS
KALISPELL      CLOUDY    24  21  88 W5        30.62S
MISSOULA       CLOUDY    18  16  92 CALM      30.63S FOG
BUTTE          FAIR      10   5  80 SE3       30.52S
MULLAN PASS    FAIR      39  32  76 S3        30.48S
ANACONDA         N/A     16   9  73 SW5       30.51F
DEER LODGE       N/A     10   9  92 CALM      30.55S
EUREKA           N/A    N/A N/A N/A MISG      30.67S
HAMILTON         N/A     14  10  85 CALM      30.60S VSB 1/4
LIBBY            N/A     18  16  93 CALM      30.64R
PLAINS           N/A     23  18  81 CALM      30.60S
RONAN            N/A     24  20  85 S2        30.59S
$$

MTZ008-052>055-111100-
SOUTHWEST MONTANA

CITY           SKY/WX    TMP DP  RH WIND       PRES   REMARKS
BOZEMAN        FAIR      11   5  77 SE3       30.51S
DILLON         FAIR      23  11  60 SW13      30.52R WCI  11
W YELLOWSTONE  FAIR      -6  -9  84 CALM      30.60R
ENNIS          CLOUDY    23  12  63 CALM      30.55S
THREE FORKS      N/A      7   3  83 CALM      30.43S
TWIN BRIDGES     N/A     20   9  62 CALM      30.44S
$$

MTZ009-010-012-014-046-048-049-054-111100-
EAST SLOPES AND CENTRAL MONTANA

CITY           SKY/WX    TMP DP  RH WIND       PRES   REMARKS
CUT BANK       FAIR      23  13  65 CALM      30.41R
GREAT FALLS    FAIR      29  13  51 S7        30.42S WCI  22
MALMSTROM AFB  FAIR      24  15  67 S6        30.42S WCI  17
HELENA         FAIR      19  16  88 CALM      30.51R
BOWMANS CRNR   FAIR      32  12  43 S13       30.40S WCI  23
CHOTEAU          N/A     34  16  47 CALM      30.43R
FAIRFIELD      FAIR      28  13  54 NW3       30.41S
POWER          FAIR      24  12  60 W3        30.41R
RAYNESFORD     FAIR      29  16  58 CALM      30.43R
ULM            FAIR      30  16  57 CALM      30.42S
$$

MTZ011-013-016-021-045-047-050-051-111100-
NORTH CENTRAL MONTANA

CITY           SKY/WX    TMP DP  RH WIND       PRES   REMARKS
HAVRE          FAIR      24  16  71 SW7       30.39S WCI  16
LEWISTOWN      FAIR      30  19  63 W16       30.40S WCI  19
N BAR RANCH    FAIR      36  14  41 W9        30.38R WCI  29
CHINOOK          N/A     27  18  69 W7        30.37S WCI  19
DENTON         FAIR      36  15  42 MISG      30.38R
GEYSER         FAIR      31  15  51 SW10      30.40R WCI  22
GRASS RANGE    FAIR      37  17  44 W20G28    30.34R WCI  27
STANFORD       FAIR      30  16  55 CALM      30.41R
WINIFRED       FAIR      32  16  51 W10       30.38S WCI  24
$$

MTZ017>020-022>027-061-062-111100-
NORTHEAST MONTANA

CITY           SKY/WX    TMP DP  RH WIND       PRES   REMARKS
GLASGOW        FAIR      35  23  61 NW12      30.27R WCI  27
GLENDIVE       FAIR      39  25  57 NW32G40   30.18R WCI  27
JORDAN           N/A     42  19  39 NW21G30   30.28R
SIDNEY         CLOUDY    39  30  70 NW33G44   30.15R WCI  27
WOLF POINT     FAIR      41  28  60 NW28G36   30.22R
MALTA          CLEAR     34  19  55 W8        30.34R WCI  27
PLENTYWOOD       N/A     36  30  80 NW28G38   30.10R WCI  23
POPLAR           N/A     39  28  65 NW24G38   30.18R WCI  28
SCOBEY           N/A     36  24  62 NW22      30.14R WCI  25
$$

MTZ028>42-056>058-111100-
SOUTHCENTRAL AND SOUTHEAST MONTANA

CITY           SKY/WX    TMP DP  RH WIND       PRES   REMARKS
BAKER          FAIR      37  26  64 NW24G31   30.17R WCI  26
BILLINGS       FAIR      39  15  37 N6        30.38R
LIVINGSTON     FAIR      34  15  46 NW18G28   30.43S WCI  23
MILES CITY     FAIR      39  21  48 W14       30.27R WCI  31
BIG TIMBER     CLEAR     41  10  28 W24G31    30.40R
EKALAKA          N/A     38  18  44 W22       30.15S WCI  27
FORSYTH          N/A     39  18  41 W10       30.33R
LAUREL           N/A     30  18  59 W9        30.39R WCI  22
$$

REGIONAL REPORTS...DAKOTAS

CITY           SKY/WX    TMP DP  RH WIND       PRES   REMARKS
WILLISTON      CLOUDY    38  30  73 NW28G36   30.10R WCI  26
MINOT          CLOUDY    40  32  73 NW25G35   29.92R
DICKINSON      CLOUDY    38  29  70 NW24G32   30.04R WCI  27
BEACH          CLOUDY    37  25  60 NW32G38   30.15S WCI  25
CROSBY         CLOUDY    36  34  93 NW30G41   30.06R WCI  22
TIOGA          MIX PCPN  34  34 100 NW35G45   30.03R WCI  19
BISMARCK       CLOUDY    44  33  65 NW21G36   29.93R
GRAND FORKS    CLOUDY    37  31  78 NW17      29.70R WCI  27
FARGO          FAIR      35  29  78 NW13      29.70S WCI  26
BUFFALO SD       N/A     42  22  44 NW36G49   30.06R
RAPID CITY     FAIR      48  15  26 NW32G44   30.16R
$$

REGIONAL REPORTS...WYOMING/IDAHO/WASHINGTON

CITY           SKY/WX    TMP DP  RH WIND       PRES   REMARKS
GILLETTE       FAIR      35  15  44 W13       30.30R WCI  26
SHERIDAN       FAIR      36  15  42 NW13      30.35R WCI  27
BUFFALO WY     FAIR      41   9  26 NW10      30.33S
CODY           FAIR      35   7  31 E5        30.40R
YELLOWSTONE LA   N/A      4   1  88 CALM      30.59R
IDAHO FALLS    FAIR      11   8  88 N7        30.60R WCI   0
SALMON         CLOUDY    16  14  92 CALM      30.74S
BOISE          CLOUDY    24  20  84 SE5       30.68R
SPOKANE        CLOUDY    25  24  96 N5        30.58F
$$

REGIONAL REPORTS...ALBERTA

CITY           SKY/WX    TMP DP  RH WIND       PRES   REMARKS
EDMONTON       CLEAR     28  21  74 W7        30.33R WCI  21
CALGARY        PTCLDY    21  10  63 VRB2      30.37
LETHBRIDGE     CLEAR     21  14  73 SE3       30.40R
MEDICINE HAT   CLEAR     25  19  80 W10       30.39R WCI  15
$$

REGIONAL REPORTS...SASKATCHEWAN

CITY           SKY/WX    TMP DP  RH WIND       PRES   REMARKS
SWIFT CURRENT  CLOUDY    32  25  74 W16G23    30.26R WCI  21
REGINA         CLOUDY    34  30  86 NW24      30.14R WCI  21
SASKATOON      CLOUDY    34  32  93 W6        30.22R WCI  29
$$




USA.gov is the U.S. government's official web portal to all federal, state and local government web resources and services.